Location: Camoruquito
(9.9001°N, 67.3564°W)
Time: 04:32:27
(UTC+00:00)

USA 306 - Pass Details

Date: 14 April 2024
Orbit: 496 x 519 km, 54.0° (Epoch: 15 February)

Event Time Altitude Azimuth Distance (km) Brightness Sun altitude
Exits shadow 09:43:29 - 212° (SSW) 2,198 5.5 -9.5°
Reaches altitude 10° 09:44:46 10° 211° (SSW) 1,687 4.9 -9.2°
Maximum altitude 09:48:38 84° 122° (ESE) 495 2.6 -8.3°
Drops below altitude 10° 09:52:21 10° 36° (NE) 1,626 6.0 -7.4°
Sets 09:54:26 0° 35° (NE) 2,460 6.9 -6.9°
